sat.trackr.live / text

‹ back to catalog

STARLINK-4754

NORAD 53842 · 2022-114AA

PAYLOAD ACTIVE UNKNOWN

§ Identity

Operator
Country
US
Launch date
2022-09-19
Launch site
AFETR
Launch vehicle
Mass (kg)
RCS (m²)

Purposes: comms

External: N2YO · Heavens-Above · Gunter

§ Orbital elements

Epoch: 2026-05-24T21:02:09.555072Z

Period
95.44 min
Inclination
53.2138°
Eccentricity
0.0001568
Mean motion
15.08844958 rev/d
Perigee alt
538.6 km
Apogee alt
540.8 km
Semi-major
6,917.9 km
B*
1.6625e-5
RAAN
312.0740°
Arg perigee
93.2273°
Mean anomaly
266.8899°
Rev number
20,447

§ Raw data

STARLINK-47541 53842U 22114AA  26144.87649948 -.00000023  00000+0  16625-4 0  99932 53842  53.2138 312.0740 0001568  93.2273 266.8899 15.08844958204476

JSON: /api/v1/satellites/53842 · /tle

For live sub-satellite position, see the globe view (requires WebGL).

§ Visibility from observer

Set your observer location to see the next 7 days of passes ≥ 10°. The values pass through the URL so the page stays shareable.

No JS? Fill the form by hand. The geolocation button needs JavaScript.